Regional Weather Roundup
Issued by NWS

Home | Current Version | Previous Version | Graphics & Text | Print | Product List | Glossary On
Versions: 1 2 3 4 5 6 7 8 9 10 11 12 13 14 15 16 17 18 19 20 21 22 23 24 25 26 27 28 29 30 31 32 33 34 35 36 37 38 39 40 41 42 43 44 45 46 47 48 49 50
000
ASUS43 KFSD 271210
RWRSD

WEATHER ROUNDUP FOR SOUTH DAKOTA
NATIONAL WEATHER SERVICE SIOUX FALLS SD
700 AM CDT WED AUG 27 2014

NOTE: "FAIR" INDICATES FEW OR NO CLOUDS BELOW 12,000 FEET WITH NO
SIGNIFICANT WEATHER AND/OR OBSTRUCTIONS TO VISIBILITY.


SDZ001>005-009-010-012>017-271300-
NORTHWEST AND NORTH CENTRAL SOUTH DAKOTA

CITY           SKY/WX    TMP DP  RH WIND       PRES   REMARKS
BUFFALO          N/A     51  49  92 E6        30.09S
FAITH            N/A     49  48  97 NE7       30.13F
MOBRIDGE       CLEAR     54  52  93 VRB3      30.13S
$$

SDZ012>016-024>037-041>051-057-063-072>074-271300-
SOUTHWEST AND SOUTH CENTRAL SOUTH DAKOTA

CITY           SKY/WX    TMP DP  RH WIND       PRES   REMARKS
RAPID CTY ARPT MOCLDY    57  53  86 N7        30.14R
PIERRE         CLOUDY    60  59  96 E8        30.10S
CUSTER         PTCLDY    55  52  89 N3        30.24R
ELLSWORTH AFB  MOCLDY    56  53  89 N1        30.14R
PHILIP         CLOUDY    55  53  93 NE3       30.12R
PINE RIDGE     MOCLDY    60  60 100 MISG      30.13S
WINNER         CLOUDY    68  65  90 SE8       30.11R
$$

SDZ004>011-016>023-039-040-271300-
NORTHEAST SOUTH DAKOTA

CITY           SKY/WX    TMP DP  RH WIND       PRES   REMARKS
ABERDEEN       CLEAR     53  53 100 NE6       30.17R
WATERTOWN      PTCLDY    56  53  90 E7        30.16F
SISSETON         N/A     55  55 100 CALM      30.18R
$$

SDZ017-020-022-023-036>040-048>070-271300-
SOUTHEAST SOUTH DAKOTA

CITY           SKY/WX    TMP DP  RH WIND       PRES   REMARKS
SIOUX FALLS    MOCLDY    61  56  83 E5        30.16R
HURON          MOCLDY    59  57  93 E5        30.14S
CHAMBERLAIN    CLOUDY    62  60  95 E3        30.12S
MITCHELL       CLOUDY    59  58  96 SE8       30.13S
YANKTON        CLOUDY    59  57  94 E6        30.13R
$$

ABBREVIATIONS USED IN REMARKS
   TC - TEMPERATURE IN CELSIUS
  WCI - WIND CHILL INDEX
   HX - HEAT INDEX
  VSB - VISIBILITY



USA.gov is the U.S. government's official web portal to all federal, state and local government web resources and services.